Location: Doughton Park
(36.4224°N, 81.1835°W)
Time: 19:44:48
(UTC-05:00)

ISS - All Passes

Search period start: 30 January 2015 00:00
Search period end: 09 February 2015 00:00
Orbit: 400 x 408 km, 51.6° (Epoch: 30 January)

Date Brightness Start Highest point End Pass type
(mag) Time Alt. Az. Time Alt. Az. Time Alt. Az.
30 Jan - 03:00:32 10° N 03:01:42 11° NNE 03:02:55 10° NE night (unlit)
30 Jan - 04:35:29 10° NW 04:38:46 61° NE 04:42:02 10° ESE visible
30 Jan - 06:13:59 10° WSW 06:14:55 11° SW 06:15:41 10° SW visible
30 Jan - 21:13:20 10° SW 21:16:36 80° SE 21:19:53 10° NE night (unlit)
30 Jan - 22:51:32 10° WNW 22:53:28 14° NNW 22:55:23 10° N night (unlit)
31 Jan - 03:43:25 10° NNW 03:46:25 32° NE 03:49:26 10° E night (unlit)
31 Jan - 05:20:09 10° WNW 05:22:48 22° SW 05:25:22 10° S visible
31 Jan - 20:21:22 10° SSW 20:24:22 36° SE 20:27:26 10° ENE visible
31 Jan - 21:58:17 10° W 22:00:57 22° NNW 22:03:36 10° NNE night (unlit)
01 Feb - 02:51:29 10° NNW 02:53:56 19° NNE 02:56:26 10° ENE night (unlit)
01 Feb - 04:27:25 10° WNW 04:30:36 46° SW 04:33:45 10° SSE night (unlit)
01 Feb - 19:29:58 10° S 19:32:11 17° SE 19:34:29 10° E visible
01 Feb - 21:05:23 10° WSW 21:08:28 38° NW 21:11:34 10° NE night (unlit)
02 Feb - 01:59:45 10° N 02:01:21 13° NNE 02:03:00 10° NE night (unlit)
02 Feb - 03:35:01 10° NW 03:38:18 80° NE 03:41:36 10° SE night (unlit)
02 Feb - 20:12:49 10° SW 20:16:04 78° NW 20:19:21 10° NE visible
02 Feb - 21:51:27 10° NW 21:53:02 13° NNW 21:54:34 10° N night (unlit)
03 Feb - 02:42:46 10° NW 02:45:54 39° NE 02:49:01 10° ESE night (unlit)
03 Feb - 04:19:54 10° W 04:22:11 17° SW 04:24:23 10° S night (unlit)
03 Feb - 19:20:36 10° SSW 19:23:43 47° SE 19:26:53 10° ENE visible
03 Feb - 20:57:56 10° WNW 21:00:23 19° NNW 21:02:48 10° NNE visible
04 Feb - 01:50:41 10° NNW 01:53:22 22° NNE 01:56:03 10° E night (unlit)
04 Feb - 03:26:52 10° WNW 03:29:54 35° SW 03:32:56 10° SSE night (unlit)
04 Feb - 18:28:51 10° S 18:31:25 22° SE 18:34:03 10° ENE visible
04 Feb - 20:04:50 10° W 20:07:47 31° NW 20:10:45 10° NNE visible
05 Feb - 00:58:46 10° N 01:00:42 15° NNE 01:02:41 10° ENE night (unlit)
05 Feb - 02:34:15 10° NW 02:37:33 79° SW 02:40:50 10° SE night (unlit)
05 Feb - 17:38:23 10° SE 17:39:08 11° SE 17:40:01 10° ESE daylight
05 Feb - 19:12:02 10° WSW 19:15:16 60° NW 19:18:30 10° NE visible
05 Feb - 20:51:12 10° NW 20:52:19 11° NNW 20:53:22 10° N visible
06 Feb - 00:07:31 10° NNE 00:07:56 10° NNE 00:08:24 10° NNE night (unlit)
06 Feb - 01:41:52 10° NW 01:45:05 48° NE 01:48:16 10° ESE night (unlit)
06 Feb - 03:19:29 10° W 03:21:16 14° SW 03:22:56 10° SSW night (unlit)
06 Feb - 18:19:35 10° SW 18:22:47 62° SE 18:26:02 10° NE visible
06 Feb - 19:57:21 10° WNW 19:59:32 16° NNW 20:01:42 10° NNE visible
07 Feb - 00:49:38 10° NNW 00:52:29 26° NNE 00:55:20 10° E night (unlit)
07 Feb - 02:26:03 10° WNW 02:28:55 27° SW 02:31:45 10° SSE night (unlit)
07 Feb - 17:27:33 10° SSW 17:30:22 28° SE 17:33:14 10° ENE daylight
07 Feb - 19:04:01 10° W 19:06:49 26° NNW 19:09:38 10° NNE visible
07 Feb - 23:57:33 10° NNW 23:59:45 17° NNE 00:01:59 10° ENE night (unlit)
08 Feb - 01:33:14 10° NW 01:36:29 60° SW 01:39:43 10° SE night (unlit)
08 Feb - 16:36:19 10° SSE 16:37:59 14° SE 16:39:45 10° E daylight
08 Feb - 18:11:00 10° WSW 18:14:09 47° NW 18:17:20 10° NE daylight
08 Feb - 23:05:47 10° N 23:06:54 11° NNE 23:08:05 10° NE night (unlit)
